{"data":{"norad_id":66639,"epoch":"2026-05-25T05:24:54.761184Z","epoch_age_seconds":55406,"freshness":"FRESH","line1":"1 66639U 25271Y   26145.22563381  .00026293  00000+0  89681-3 0  9991","line2":"2 66639  53.1565 144.5019 0001145  97.7149 262.3982 15.30196532 29287","mean_motion":15.30196532,"eccentricity":0.0001145,"inclination_deg":53.1565,"raan_deg":144.5019,"arg_perigee_deg":97.7149,"mean_anomaly_deg":262.3982,"bstar":0.00089681,"rev_number":2928,"period_min":94.105558984498,"perigee_km":474.44071426419,"apogee_km":476.01013425935,"semimajor_km":6853.3624242618,"source":"CELESTRAK","updated_at":"2026-05-25T13:38:21.298791Z"}}